Year,Month,Day,Hour,Minute,Value (Times are PST for temperature in C)
2009,05,30,00,00,15.00
2009,05,30,00,01,15.00
2009,05,30,00,02,14.90
2009,05,30,00,03,14.80
2009,05,30,00,04,14.70
2009,05,30,00,05,14.60
2009,05,30,00,06,14.60
2009,05,30,00,07,14.40
2009,05,30,00,08,14.40
2009,05,30,00,09,14.30
2009,05,30,00,10,14.20
2009,05,30,00,11,14.20
2009,05,30,00,12,14.10
2009,05,30,00,13,14.00
2009,05,30,00,14,13.90
2009,05,30,00,15,13.80
2009,05,30,00,16,13.80
2009,05,30,00,17,13.70
2009,05,30,00,18,13.60
2009,05,30,00,19,13.50
2009,05,30,00,20,13.50
2009,05,30,00,21,13.40
2009,05,30,00,22,13.40
2009,05,30,00,23,13.30
2009,05,30,00,24,13.20
2009,05,30,00,25,13.20
2009,05,30,00,26,13.10
2009,05,30,00,27,13.10
2009,05,30,00,28,13.00
2009,05,30,00,29,13.00
2009,05,30,00,30,12.90
2009,05,30,00,31,12.90
2009,05,30,00,32,12.90
2009,05,30,00,33,12.80
2009,05,30,00,34,12.80
2009,05,30,00,35,12.80
2009,05,30,00,36,12.80
2009,05,30,00,37,12.80
2009,05,30,00,38,12.70
2009,05,30,00,39,12.70
2009,05,30,00,40,12.70
2009,05,30,00,41,12.70
2009,05,30,00,42,12.70
2009,05,30,00,43,12.60
2009,05,30,00,44,12.60
2009,05,30,00,45,12.60
2009,05,30,00,46,12.60
2009,05,30,00,47,12.60
2009,05,30,00,48,12.60
2009,05,30,00,49,12.60
2009,05,30,00,50,12.60
2009,05,30,00,51,12.70
2009,05,30,00,52,12.70
2009,05,30,00,53,12.70
2009,05,30,00,54,12.70
2009,05,30,00,55,12.70
2009,05,30,00,56,12.70
2009,05,30,00,57,12.70
2009,05,30,00,58,12.70
2009,05,30,00,59,12.70
2009,05,30,01,00,12.70
2009,05,30,01,01,12.60
2009,05,30,01,02,12.60
2009,05,30,01,03,12.60
2009,05,30,01,04,12.60
2009,05,30,01,05,12.60
2009,05,30,01,06,12.60
2009,05,30,01,07,12.60
2009,05,30,01,08,12.60
2009,05,30,01,09,12.60
2009,05,30,01,10,12.60
2009,05,30,01,11,12.60
2009,05,30,01,12,12.60
2009,05,30,01,13,12.60
2009,05,30,01,14,12.60
2009,05,30,01,15,12.70
2009,05,30,01,16,12.70
2009,05,30,01,17,12.70
2009,05,30,01,18,12.70
2009,05,30,01,19,12.70
2009,05,30,01,20,12.70
2009,05,30,01,21,12.80
2009,05,30,01,22,12.80
2009,05,30,01,23,12.70
2009,05,30,01,24,12.70
2009,05,30,01,25,12.70
2009,05,30,01,26,12.70
2009,05,30,01,27,12.70
2009,05,30,01,28,12.70
2009,05,30,01,29,12.70
2009,05,30,01,30,12.70
2009,05,30,01,31,12.70
2009,05,30,01,32,12.70
2009,05,30,01,33,12.70
2009,05,30,01,34,12.70
2009,05,30,01,35,12.70
2009,05,30,01,36,12.70
2009,05,30,01,37,12.80
2009,05,30,01,38,12.80
2009,05,30,01,39,12.80
2009,05,30,01,40,12.80
2009,05,30,01,41,12.80
2009,05,30,01,42,12.80
2009,05,30,01,43,12.80
2009,05,30,01,44,12.80
2009,05,30,01,45,12.80
2009,05,30,01,46,12.90
2009,05,30,01,47,12.90
2009,05,30,01,48,12.90
2009,05,30,01,49,12.90
2009,05,30,01,50,13.00
2009,05,30,01,51,13.00
2009,05,30,01,52,13.10
2009,05,30,01,53,13.20
2009,05,30,01,54,13.20
2009,05,30,01,55,13.30
2009,05,30,01,56,13.40
2009,05,30,01,57,13.40
2009,05,30,01,58,13.50
2009,05,30,01,59,13.60
2009,05,30,02,00,13.60
2009,05,30,02,01,13.70
2009,05,30,02,02,13.80
2009,05,30,02,03,13.80
2009,05,30,02,04,13.80
2009,05,30,02,05,13.80
2009,05,30,02,06,13.80
2009,05,30,02,07,13.80
2009,05,30,02,08,13.70
2009,05,30,02,09,13.60
2009,05,30,02,10,13.50
2009,05,30,02,11,13.40
2009,05,30,02,12,13.40
2009,05,30,02,13,13.30
2009,05,30,02,14,13.20
2009,05,30,02,15,13.20
2009,05,30,02,16,13.10
2009,05,30,02,17,13.10
2009,05,30,02,18,13.00
2009,05,30,02,19,12.90
2009,05,30,02,20,12.90
2009,05,30,02,21,12.80
2009,05,30,02,22,12.80
2009,05,30,02,23,12.80
2009,05,30,02,24,12.70
2009,05,30,02,25,12.70
2009,05,30,02,26,12.60
2009,05,30,02,27,12.60
2009,05,30,02,28,12.60
2009,05,30,02,29,12.60
2009,05,30,02,30,12.50
2009,05,30,02,31,12.50
2009,05,30,02,32,12.50
2009,05,30,02,33,12.50
2009,05,30,02,34,12.50
2009,05,30,02,35,12.50
2009,05,30,02,36,12.50
2009,05,30,02,37,12.50
2009,05,30,02,38,12.50
2009,05,30,02,39,12.60
2009,05,30,02,40,12.60
2009,05,30,02,41,12.60
2009,05,30,02,42,12.60
2009,05,30,02,43,12.60
2009,05,30,02,44,12.60
2009,05,30,02,45,12.60
2009,05,30,02,46,12.60
2009,05,30,02,47,12.50
2009,05,30,02,48,12.50
2009,05,30,02,49,12.40
2009,05,30,02,50,12.40
2009,05,30,02,51,12.30
2009,05,30,02,52,12.30
2009,05,30,02,53,12.20
2009,05,30,02,54,12.20
2009,05,30,02,55,12.20
2009,05,30,02,56,12.10
2009,05,30,02,57,12.10
2009,05,30,02,58,12.00
2009,05,30,02,59,12.00
2009,05,30,03,00,11.90
2009,05,30,03,01,11.90
2009,05,30,03,02,11.90
2009,05,30,03,03,11.80
2009,05,30,03,04,11.80
2009,05,30,03,05,11.80
2009,05,30,03,06,11.80
2009,05,30,03,07,11.70
2009,05,30,03,08,11.70
2009,05,30,03,09,11.70
2009,05,30,03,10,11.70
2009,05,30,03,11,11.70
2009,05,30,03,12,11.70
2009,05,30,03,13,11.70
2009,05,30,03,14,11.60
2009,05,30,03,15,11.60
2009,05,30,03,16,11.60
2009,05,30,03,17,11.60
2009,05,30,03,18,11.60
2009,05,30,03,19,11.60
2009,05,30,03,20,11.60
2009,05,30,03,21,11.60
2009,05,30,03,22,11.60
2009,05,30,03,23,11.60
2009,05,30,03,24,11.60
2009,05,30,03,25,11.50
2009,05,30,03,26,11.50
2009,05,30,03,27,11.50
2009,05,30,03,28,11.50
2009,05,30,03,29,11.50
2009,05,30,03,30,11.50
2009,05,30,03,31,11.50
2009,05,30,03,32,11.40
2009,05,30,03,33,11.40
2009,05,30,03,34,11.40
2009,05,30,03,35,11.40
2009,05,30,03,36,11.40
2009,05,30,03,37,11.30
2009,05,30,03,38,11.30
2009,05,30,03,39,11.30
2009,05,30,03,40,11.30
2009,05,30,03,41,11.30
2009,05,30,03,42,11.30
2009,05,30,03,43,11.30
2009,05,30,03,44,11.30
2009,05,30,03,45,11.20
2009,05,30,03,46,11.20
2009,05,30,03,47,11.20
2009,05,30,03,48,11.20
2009,05,30,03,49,11.20
2009,05,30,03,50,11.20
2009,05,30,03,51,11.20
2009,05,30,03,52,11.20
2009,05,30,03,53,11.20
2009,05,30,03,54,11.10
2009,05,30,03,55,11.10
2009,05,30,03,56,11.10
2009,05,30,03,57,11.10
2009,05,30,03,58,11.10
2009,05,30,03,59,11.10
2009,05,30,04,00,11.00
2009,05,30,04,01,11.00
2009,05,30,04,02,11.00
2009,05,30,04,03,11.00
2009,05,30,04,04,11.00
2009,05,30,04,05,10.90
2009,05,30,04,06,10.90
2009,05,30,04,07,10.90
2009,05,30,04,08,10.90
2009,05,30,04,09,10.90
2009,05,30,04,10,10.90
2009,05,30,04,11,10.80
2009,05,30,04,12,10.80
2009,05,30,04,13,10.80
2009,05,30,04,14,10.80
2009,05,30,04,15,10.80
2009,05,30,04,16,10.80
2009,05,30,04,17,10.70
2009,05,30,04,18,10.70
2009,05,30,04,19,10.70
2009,05,30,04,20,10.70
2009,05,30,04,21,10.70
2009,05,30,04,22,10.70
2009,05,30,04,23,10.70
2009,05,30,04,24,10.70
2009,05,30,04,25,10.70
2009,05,30,04,26,10.60
2009,05,30,04,27,10.60
2009,05,30,04,28,10.60
2009,05,30,04,29,10.60
2009,05,30,04,30,10.60
2009,05,30,04,31,10.50
2009,05,30,04,32,10.50
2009,05,30,04,33,10.50
2009,05,30,04,34,10.40
2009,05,30,04,35,10.40
2009,05,30,04,36,10.40
2009,05,30,04,37,10.40
2009,05,30,04,38,10.30
2009,05,30,04,39,10.30
2009,05,30,04,40,10.30
2009,05,30,04,41,10.30
2009,05,30,04,42,10.30
2009,05,30,04,43,10.30
2009,05,30,04,44,10.20
2009,05,30,04,45,10.20
2009,05,30,04,46,10.20
2009,05,30,04,47,10.20
2009,05,30,04,48,10.20
2009,05,30,04,49,10.10
2009,05,30,04,50,10.10
2009,05,30,04,51,10.10
2009,05,30,04,52,10.10
2009,05,30,04,53,10.10
2009,05,30,04,54,10.10
2009,05,30,04,55,10.10
2009,05,30,04,56,10.10
2009,05,30,04,57,10.10
2009,05,30,04,58,10.10
2009,05,30,04,59,10.10
2009,05,30,05,00,10.10
2009,05,30,05,01,10.20
2009,05,30,05,02,10.20
2009,05,30,05,03,10.20
2009,05,30,05,04,10.20
2009,05,30,05,05,10.20
2009,05,30,05,06,10.30
2009,05,30,05,07,10.30
2009,05,30,05,08,10.30
2009,05,30,05,09,10.40
2009,05,30,05,10,10.40
2009,05,30,05,11,10.40
2009,05,30,05,12,10.40
2009,05,30,05,13,10.40
2009,05,30,05,14,10.40
2009,05,30,05,15,10.40
2009,05,30,05,16,10.30
2009,05,30,05,17,10.30
2009,05,30,05,18,10.30
2009,05,30,05,19,10.30
2009,05,30,05,20,10.30
2009,05,30,05,21,10.30
2009,05,30,05,22,10.30
2009,05,30,05,23,10.20
2009,05,30,05,24,10.20
2009,05,30,05,25,10.20
2009,05,30,05,26,10.20
2009,05,30,05,27,10.10
2009,05,30,05,28,10.10
2009,05,30,05,29,10.10
2009,05,30,05,30,10.00
2009,05,30,05,31,10.00
2009,05,30,05,32,10.00
2009,05,30,05,33,9.90
2009,05,30,05,34,9.90
2009,05,30,05,35,9.90
2009,05,30,05,36,9.90
2009,05,30,05,37,9.90
2009,05,30,05,38,9.90
2009,05,30,05,39,9.80
2009,05,30,05,40,9.80
2009,05,30,05,41,9.80
2009,05,30,05,42,9.80
2009,05,30,05,43,9.80
2009,05,30,05,44,9.80
2009,05,30,05,45,9.80
2009,05,30,05,46,9.80
2009,05,30,05,47,9.80
2009,05,30,05,48,9.80
2009,05,30,05,49,9.80
2009,05,30,05,50,9.90
2009,05,30,05,51,9.80
2009,05,30,05,52,9.80
2009,05,30,05,53,9.90
2009,05,30,05,54,9.90
2009,05,30,05,55,9.90
2009,05,30,05,56,9.80
2009,05,30,05,57,9.80
2009,05,30,05,58,9.90
2009,05,30,05,59,9.90
2009,05,30,06,00,9.90
2009,05,30,06,01,9.90
2009,05,30,06,02,9.90
2009,05,30,06,03,9.90
2009,05,30,06,04,9.90
2009,05,30,06,05,9.90
2009,05,30,06,06,10.00
2009,05,30,06,07,10.00
2009,05,30,06,08,10.00
2009,05,30,06,09,10.00
2009,05,30,06,10,10.10
2009,05,30,06,11,10.10
2009,05,30,06,12,10.10
2009,05,30,06,13,10.10
2009,05,30,06,14,10.20
2009,05,30,06,15,10.20
2009,05,30,06,16,10.20
2009,05,30,06,17,10.20
2009,05,30,06,18,10.30
2009,05,30,06,19,10.30
2009,05,30,06,20,10.30
2009,05,30,06,21,10.30
2009,05,30,06,22,10.30
2009,05,30,06,23,10.40
2009,05,30,06,24,10.40
2009,05,30,06,25,10.50
2009,05,30,06,26,10.50
2009,05,30,06,27,10.60
2009,05,30,06,28,10.60
2009,05,30,06,29,10.60
2009,05,30,06,30,10.70
2009,05,30,06,31,10.70
2009,05,30,06,32,10.70
2009,05,30,06,33,10.80
2009,05,30,06,34,10.80
2009,05,30,06,35,10.80
2009,05,30,06,36,10.80
2009,05,30,06,37,10.90
2009,05,30,06,38,10.90
2009,05,30,06,39,10.90
2009,05,30,06,40,11.00
2009,05,30,06,41,11.00
2009,05,30,06,42,11.10
2009,05,30,06,43,11.20
2009,05,30,06,44,11.20
2009,05,30,06,45,11.30
2009,05,30,06,46,11.40
2009,05,30,06,47,11.40
2009,05,30,06,48,11.50
2009,05,30,06,49,11.60
2009,05,30,06,50,11.70
2009,05,30,06,51,11.80
2009,05,30,06,52,11.80
2009,05,30,06,53,12.00
2009,05,30,06,54,12.10
2009,05,30,06,55,12.20
2009,05,30,06,56,12.40
2009,05,30,06,57,12.50
2009,05,30,06,58,12.60
2009,05,30,06,59,12.70
2009,05,30,07,00,12.80
2009,05,30,07,01,12.90
2009,05,30,07,02,13.00
2009,05,30,07,03,13.10
2009,05,30,07,04,13.20
2009,05,30,07,05,13.30
2009,05,30,07,06,13.30
2009,05,30,07,07,13.40
2009,05,30,07,08,13.40
2009,05,30,07,09,13.50
2009,05,30,07,10,13.60
2009,05,30,07,11,13.60
2009,05,30,07,12,13.70
2009,05,30,07,13,13.80
2009,05,30,07,14,13.80
2009,05,30,07,15,13.80
2009,05,30,07,16,13.90
2009,05,30,07,17,14.00
2009,05,30,07,18,14.10
2009,05,30,07,19,14.20
2009,05,30,07,20,14.30
2009,05,30,07,21,14.50
2009,05,30,07,22,14.60
2009,05,30,07,23,14.70
2009,05,30,07,24,14.80
2009,05,30,07,25,14.90
2009,05,30,07,26,15.00
2009,05,30,07,27,15.00
2009,05,30,07,28,15.00
2009,05,30,07,29,15.00
2009,05,30,07,30,15.00
2009,05,30,07,31,15.00
2009,05,30,07,32,15.00
2009,05,30,07,33,15.00
2009,05,30,07,34,15.00
2009,05,30,07,35,15.00
2009,05,30,07,36,15.00
2009,05,30,07,37,15.00
2009,05,30,07,38,14.90
2009,05,30,07,39,14.80
2009,05,30,07,40,14.80
2009,05,30,07,41,14.90
2009,05,30,07,42,15.00
2009,05,30,07,43,15.00
2009,05,30,07,44,15.00
2009,05,30,07,45,15.10
2009,05,30,07,46,15.30
2009,05,30,07,47,15.50
2009,05,30,07,48,15.60
2009,05,30,07,49,15.70
2009,05,30,07,50,15.70
2009,05,30,07,51,15.70
2009,05,30,07,52,15.80
2009,05,30,07,53,15.80
2009,05,30,07,54,15.80
2009,05,30,07,55,15.80
2009,05,30,07,56,15.80
2009,05,30,07,57,15.80
2009,05,30,07,58,15.80
2009,05,30,07,59,15.80
2009,05,30,08,00,15.80
2009,05,30,08,01,15.80
2009,05,30,08,02,15.90
2009,05,30,08,03,15.90
2009,05,30,08,04,15.90
2009,05,30,08,05,15.90
2009,05,30,08,06,15.90
2009,05,30,08,07,16.00
2009,05,30,08,08,16.10
2009,05,30,08,09,16.10
2009,05,30,08,10,16.20
2009,05,30,08,11,16.30
2009,05,30,08,12,16.30
2009,05,30,08,13,16.30
2009,05,30,08,14,16.30
2009,05,30,08,15,16.40
2009,05,30,08,16,16.40
2009,05,30,08,17,16.40
2009,05,30,08,18,16.30
2009,05,30,08,19,16.30
2009,05,30,08,20,16.40
2009,05,30,08,21,16.40
2009,05,30,08,22,16.40
2009,05,30,08,23,16.40
2009,05,30,08,24,16.40
2009,05,30,08,25,16.50
2009,05,30,08,26,16.50
2009,05,30,08,27,16.60
2009,05,30,08,28,16.70
2009,05,30,08,29,16.80
2009,05,30,08,30,16.80
2009,05,30,08,31,16.90
2009,05,30,08,32,16.90
2009,05,30,08,33,17.00
2009,05,30,08,34,17.10
2009,05,30,08,35,17.10
2009,05,30,08,36,17.20
2009,05,30,08,37,17.30
2009,05,30,08,38,17.30
2009,05,30,08,39,17.40
2009,05,30,08,40,17.50
2009,05,30,08,41,17.50
2009,05,30,08,42,17.50
2009,05,30,08,43,17.60
2009,05,30,08,44,17.50
2009,05,30,08,45,17.40
2009,05,30,08,46,17.20
2009,05,30,08,47,17.20
2009,05,30,08,48,17.20
2009,05,30,08,49,17.30
2009,05,30,08,50,17.30
2009,05,30,08,51,17.30
2009,05,30,08,52,17.40
2009,05,30,08,53,17.40
2009,05,30,08,54,17.40
2009,05,30,08,55,17.40
2009,05,30,08,56,17.40
2009,05,30,08,57,17.40
2009,05,30,08,58,17.40
2009,05,30,08,59,17.40
2009,05,30,09,00,17.50
2009,05,30,09,01,17.50
2009,05,30,09,02,17.60
2009,05,30,09,03,17.70
2009,05,30,09,04,17.80
2009,05,30,09,05,17.90
2009,05,30,09,06,18.10
2009,05,30,09,07,18.20
2009,05,30,09,08,18.30
2009,05,30,09,09,18.30
2009,05,30,09,10,18.40
2009,05,30,09,11,18.40
2009,05,30,09,12,18.40
2009,05,30,09,13,18.40
2009,05,30,09,14,18.40
2009,05,30,09,15,18.30
2009,05,30,09,16,18.30
2009,05,30,09,17,18.20
2009,05,30,09,18,18.20
2009,05,30,09,19,18.10
2009,05,30,09,20,18.10
2009,05,30,09,21,18.10
2009,05,30,09,22,18.10
2009,05,30,09,23,18.10
2009,05,30,09,24,18.10
2009,05,30,09,25,18.10
2009,05,30,09,26,18.10
2009,05,30,09,27,18.20
2009,05,30,09,28,18.20
2009,05,30,09,29,18.20
2009,05,30,09,30,18.30
2009,05,30,09,31,18.20
2009,05,30,09,32,18.20
2009,05,30,09,33,18.20
2009,05,30,09,34,18.30
2009,05,30,09,35,18.30
2009,05,30,09,36,18.30
2009,05,30,09,37,18.30
2009,05,30,09,38,18.30
2009,05,30,09,39,18.20
2009,05,30,09,40,18.20
2009,05,30,09,41,18.20
2009,05,30,09,42,18.30
2009,05,30,09,43,18.40
2009,05,30,09,44,18.40
2009,05,30,09,45,18.30
2009,05,30,09,46,18.30
2009,05,30,09,47,18.30
2009,05,30,09,48,18.20
2009,05,30,09,49,18.20
2009,05,30,09,50,18.20
2009,05,30,09,51,18.30
2009,05,30,09,52,18.40
2009,05,30,09,53,18.50
2009,05,30,09,54,18.60
2009,05,30,09,55,18.60
2009,05,30,09,56,18.60
2009,05,30,09,57,18.60
2009,05,30,09,58,18.70
2009,05,30,09,59,18.70
2009,05,30,10,00,18.80
2009,05,30,10,01,18.80
2009,05,30,10,02,18.80
2009,05,30,10,03,18.80
2009,05,30,10,04,18.80
2009,05,30,10,05,18.80
2009,05,30,10,06,18.90
2009,05,30,10,07,18.90
2009,05,30,10,08,18.90
2009,05,30,10,09,18.80
2009,05,30,10,10,18.70
2009,05,30,10,11,18.70
2009,05,30,10,12,18.70
2009,05,30,10,13,18.70
2009,05,30,10,14,18.60
2009,05,30,10,15,18.70
2009,05,30,10,16,18.70
2009,05,30,10,17,18.60
2009,05,30,10,18,18.60
2009,05,30,10,19,18.60
2009,05,30,10,20,18.70
2009,05,30,10,21,18.70
2009,05,30,10,22,18.70
2009,05,30,10,23,18.60
2009,05,30,10,24,18.50
2009,05,30,10,25,18.40
2009,05,30,10,26,18.40
2009,05,30,10,27,18.40
2009,05,30,10,28,18.30
2009,05,30,10,29,18.20
2009,05,30,10,30,18.20
2009,05,30,10,31,18.30
2009,05,30,10,32,18.30
2009,05,30,10,33,18.40
2009,05,30,10,34,18.50
2009,05,30,10,35,18.50
2009,05,30,10,36,18.60
2009,05,30,10,37,18.70
2009,05,30,10,38,18.80
2009,05,30,10,39,18.90
2009,05,30,10,40,18.90
2009,05,30,10,41,19.00
2009,05,30,10,42,19.10
2009,05,30,10,43,19.20
2009,05,30,10,44,19.30
2009,05,30,10,45,19.30
2009,05,30,10,46,19.30
2009,05,30,10,47,19.30
2009,05,30,10,48,19.30
2009,05,30,10,49,19.30
2009,05,30,10,50,19.20
2009,05,30,10,51,19.20
2009,05,30,10,52,19.10
2009,05,30,10,53,19.10
2009,05,30,10,54,19.10
2009,05,30,10,55,19.10
2009,05,30,10,56,19.20
2009,05,30,10,57,19.20
2009,05,30,10,58,19.30
2009,05,30,10,59,19.30
2009,05,30,11,00,19.30
2009,05,30,11,01,19.20
2009,05,30,11,02,19.20
2009,05,30,11,03,19.20
2009,05,30,11,04,19.10
2009,05,30,11,05,19.10
2009,05,30,11,06,19.00
2009,05,30,11,07,19.00
2009,05,30,11,08,19.00
2009,05,30,11,09,19.10
2009,05,30,11,10,19.20
2009,05,30,11,11,19.30
2009,05,30,11,12,19.40
2009,05,30,11,13,19.40
2009,05,30,11,14,19.50
2009,05,30,11,15,19.60
2009,05,30,11,16,19.70
2009,05,30,11,17,19.70
2009,05,30,11,18,19.70
2009,05,30,11,19,19.80
2009,05,30,11,20,19.90
2009,05,30,11,21,20.00
2009,05,30,11,22,20.20
2009,05,30,11,23,20.30
2009,05,30,11,24,20.30
2009,05,30,11,25,20.30
2009,05,30,11,26,20.30
2009,05,30,11,27,20.30
2009,05,30,11,28,20.30
2009,05,30,11,29,20.20
2009,05,30,11,30,20.10
2009,05,30,11,31,20.10
2009,05,30,11,32,20.20
2009,05,30,11,33,20.20
2009,05,30,11,34,20.20
2009,05,30,11,35,20.30
2009,05,30,11,36,20.40
2009,05,30,11,37,20.50
2009,05,30,11,38,20.60
2009,05,30,11,39,20.60
2009,05,30,11,40,20.60
2009,05,30,11,41,20.50
2009,05,30,11,42,20.40
2009,05,30,11,43,20.30
2009,05,30,11,44,20.30
2009,05,30,11,45,20.30
2009,05,30,11,46,20.30
2009,05,30,11,47,20.40
2009,05,30,11,48,20.40
2009,05,30,11,49,20.40
2009,05,30,11,50,20.40
2009,05,30,11,51,20.30
2009,05,30,11,52,20.30
2009,05,30,11,53,20.30
2009,05,30,11,54,20.30
2009,05,30,11,55,20.20
2009,05,30,11,56,20.20
2009,05,30,11,57,20.20
2009,05,30,11,58,20.10
2009,05,30,11,59,20.00
2009,05,30,12,00,20.00
2009,05,30,12,01,20.10
2009,05,30,12,02,20.20
2009,05,30,12,03,20.30
2009,05,30,12,04,20.40
2009,05,30,12,05,20.60
2009,05,30,12,06,20.70
2009,05,30,12,07,20.90
2009,05,30,12,08,21.00
2009,05,30,12,09,21.10
2009,05,30,12,10,21.10
2009,05,30,12,11,21.20
2009,05,30,12,12,21.30
2009,05,30,12,13,21.20
2009,05,30,12,14,21.10
2009,05,30,12,15,21.10
2009,05,30,12,16,21.00
2009,05,30,12,17,21.00
2009,05,30,12,18,21.00
2009,05,30,12,19,21.00
2009,05,30,12,20,21.10
2009,05,30,12,21,21.20
2009,05,30,12,22,21.30
2009,05,30,12,23,21.40
2009,05,30,12,24,21.40
2009,05,30,12,25,21.40
2009,05,30,12,26,21.20
2009,05,30,12,27,21.00
2009,05,30,12,28,20.90
2009,05,30,12,29,20.80
2009,05,30,12,30,20.80
2009,05,30,12,31,20.80
2009,05,30,12,32,20.80
2009,05,30,12,33,20.80
2009,05,30,12,34,20.80
2009,05,30,12,35,20.90
2009,05,30,12,36,21.00
2009,05,30,12,37,21.10
2009,05,30,12,38,21.10
2009,05,30,12,39,21.10
2009,05,30,12,40,21.10
2009,05,30,12,41,21.20
2009,05,30,12,42,21.10
2009,05,30,12,43,21.10
2009,05,30,12,44,21.20
2009,05,30,12,45,21.20
2009,05,30,12,46,21.30
2009,05,30,12,47,21.30
2009,05,30,12,48,21.30
2009,05,30,12,49,21.30
2009,05,30,12,50,21.30
2009,05,30,12,51,21.30
2009,05,30,12,52,21.20
2009,05,30,12,53,21.00
2009,05,30,12,54,20.90
2009,05,30,12,55,20.80
2009,05,30,12,56,20.80
2009,05,30,12,57,20.90
2009,05,30,12,58,20.90
2009,05,30,12,59,20.80
2009,05,30,13,00,20.70
2009,05,30,13,01,20.70
2009,05,30,13,02,20.70
2009,05,30,13,03,20.80
2009,05,30,13,04,20.90
2009,05,30,13,05,21.00
2009,05,30,13,06,21.00
2009,05,30,13,07,21.10
2009,05,30,13,08,21.10
2009,05,30,13,09,21.00
2009,05,30,13,10,20.90
2009,05,30,13,11,20.80
2009,05,30,13,12,20.80
2009,05,30,13,13,20.80
2009,05,30,13,14,20.80
2009,05,30,13,15,20.90
2009,05,30,13,16,21.00
2009,05,30,13,17,21.10
2009,05,30,13,18,21.20
2009,05,30,13,19,21.30
2009,05,30,13,20,21.40
2009,05,30,13,21,21.50
2009,05,30,13,22,21.50
2009,05,30,13,23,21.60
2009,05,30,13,24,21.60
2009,05,30,13,25,21.60
2009,05,30,13,26,21.60
2009,05,30,13,27,21.60
2009,05,30,13,28,21.50
2009,05,30,13,29,21.50
2009,05,30,13,30,21.50
2009,05,30,13,31,21.50
2009,05,30,13,32,21.60
2009,05,30,13,33,21.60
2009,05,30,13,34,21.60
2009,05,30,13,35,21.50
2009,05,30,13,36,21.40
2009,05,30,13,37,21.50
2009,05,30,13,38,21.50
2009,05,30,13,39,21.50
2009,05,30,13,40,21.50
2009,05,30,13,41,21.50
2009,05,30,13,42,21.60
2009,05,30,13,43,21.60
2009,05,30,13,44,21.60
2009,05,30,13,45,21.50
2009,05,30,13,46,21.50
2009,05,30,13,47,21.40
2009,05,30,13,48,21.40
2009,05,30,13,49,21.40
2009,05,30,13,50,21.50
2009,05,30,13,51,21.50
2009,05,30,13,52,21.70
2009,05,30,13,53,21.80
2009,05,30,13,54,22.00
2009,05,30,13,55,22.10
2009,05,30,13,56,22.20
2009,05,30,13,57,22.30
2009,05,30,13,58,22.40
2009,05,30,13,59,22.60
2009,05,30,14,00,22.70
2009,05,30,14,01,22.80
2009,05,30,14,02,22.90
2009,05,30,14,03,22.90
2009,05,30,14,04,22.90
2009,05,30,14,05,22.90
2009,05,30,14,06,22.90
2009,05,30,14,07,22.90
2009,05,30,14,08,22.90
2009,05,30,14,09,22.90
2009,05,30,14,10,23.00
2009,05,30,14,11,23.10
2009,05,30,14,12,23.20
2009,05,30,14,13,23.30
2009,05,30,14,14,23.30
2009,05,30,14,15,23.20
2009,05,30,14,16,23.00
2009,05,30,14,17,22.80
2009,05,30,14,18,22.70
2009,05,30,14,19,22.50
2009,05,30,14,20,22.40
2009,05,30,14,21,22.50
2009,05,30,14,22,22.50
2009,05,30,14,23,22.60
2009,05,30,14,24,22.60
2009,05,30,14,25,22.70
2009,05,30,14,26,22.80
2009,05,30,14,27,22.90
2009,05,30,14,28,22.90
2009,05,30,14,29,22.90
2009,05,30,14,30,22.90
2009,05,30,14,31,22.90
2009,05,30,14,32,22.90
2009,05,30,14,33,22.80
2009,05,30,14,34,22.80
2009,05,30,14,35,22.70
2009,05,30,14,36,22.50
2009,05,30,14,37,22.30
2009,05,30,14,38,22.20
2009,05,30,14,39,22.10
2009,05,30,14,40,22.10
2009,05,30,14,41,22.10
2009,05,30,14,42,22.20
2009,05,30,14,43,22.20
2009,05,30,14,44,22.20
2009,05,30,14,45,22.20
2009,05,30,14,46,22.30
2009,05,30,14,47,22.40
2009,05,30,14,48,22.50
2009,05,30,14,49,22.50
2009,05,30,14,50,22.50
2009,05,30,14,51,22.40
2009,05,30,14,52,22.40
2009,05,30,14,53,22.50
2009,05,30,14,54,22.50
2009,05,30,14,55,22.70
2009,05,30,14,56,22.80
2009,05,30,14,57,22.90
2009,05,30,14,58,23.00
2009,05,30,14,59,23.10
2009,05,30,15,00,23.10
2009,05,30,15,01,23.20
2009,05,30,15,02,23.20
2009,05,30,15,03,23.30
2009,05,30,15,04,23.40
2009,05,30,15,05,23.50
2009,05,30,15,06,23.50
2009,05,30,15,07,23.40
2009,05,30,15,08,23.30
2009,05,30,15,09,23.30
2009,05,30,15,10,23.30
2009,05,30,15,11,23.40
2009,05,30,15,12,23.50
2009,05,30,15,13,23.60
2009,05,30,15,14,23.70
2009,05,30,15,15,23.70
2009,05,30,15,16,23.80
2009,05,30,15,17,23.80
2009,05,30,15,18,23.80
2009,05,30,15,19,23.80
2009,05,30,15,20,23.80
2009,05,30,15,21,23.80
2009,05,30,15,22,23.80
2009,05,30,15,23,23.70
2009,05,30,15,24,23.60
2009,05,30,15,25,23.60
2009,05,30,15,26,23.50
2009,05,30,15,27,23.50
2009,05,30,15,28,23.40
2009,05,30,15,29,23.40
2009,05,30,15,30,23.50
2009,05,30,15,31,23.50
2009,05,30,15,32,23.50
2009,05,30,15,33,23.40
2009,05,30,15,34,23.30
2009,05,30,15,35,23.30
2009,05,30,15,36,23.20
2009,05,30,15,37,23.20
2009,05,30,15,38,23.10
2009,05,30,15,39,23.00
2009,05,30,15,40,22.90
2009,05,30,15,41,22.80
2009,05,30,15,42,22.70
2009,05,30,15,43,22.70
2009,05,30,15,44,22.80
2009,05,30,15,45,22.90
2009,05,30,15,46,23.00
2009,05,30,15,47,23.10
2009,05,30,15,48,23.20
2009,05,30,15,49,23.30
2009,05,30,15,50,23.30
2009,05,30,15,51,23.30
2009,05,30,15,52,23.20
2009,05,30,15,53,23.20
2009,05,30,15,54,23.20
2009,05,30,15,55,23.30
2009,05,30,15,56,23.30
2009,05,30,15,57,23.30
2009,05,30,15,58,23.30
2009,05,30,15,59,23.30
2009,05,30,16,00,23.20
2009,05,30,16,01,23.20
2009,05,30,16,02,23.20
2009,05,30,16,03,23.10
2009,05,30,16,04,23.00
2009,05,30,16,05,22.90
2009,05,30,16,06,22.90
2009,05,30,16,07,22.80
2009,05,30,16,08,22.70
2009,05,30,16,09,22.70
2009,05,30,16,10,22.70
2009,05,30,16,11,22.70
2009,05,30,16,12,22.70
2009,05,30,16,13,22.70
2009,05,30,16,14,22.60
2009,05,30,16,15,22.50
2009,05,30,16,16,22.40
2009,05,30,16,17,22.30
2009,05,30,16,18,22.20
2009,05,30,16,19,22.10
2009,05,30,16,20,22.00
2009,05,30,16,21,21.90
2009,05,30,16,22,21.90
2009,05,30,16,23,21.90
2009,05,30,16,24,22.00
2009,05,30,16,25,22.00
2009,05,30,16,26,22.10
2009,05,30,16,27,22.20
2009,05,30,16,28,22.20
2009,05,30,16,29,22.20
2009,05,30,16,30,22.20
2009,05,30,16,31,22.10
2009,05,30,16,32,22.00
2009,05,30,16,33,22.00
2009,05,30,16,34,22.00
2009,05,30,16,35,22.00
2009,05,30,16,36,22.00
2009,05,30,16,37,21.80
2009,05,30,16,38,21.80
2009,05,30,16,39,21.70
2009,05,30,16,40,21.70
2009,05,30,16,41,21.60
2009,05,30,16,42,21.70
2009,05,30,16,43,21.70
2009,05,30,16,44,21.80
2009,05,30,16,45,21.80
2009,05,30,16,46,21.80
2009,05,30,16,47,21.80
2009,05,30,16,48,21.90
2009,05,30,16,49,21.90
2009,05,30,16,50,21.80
2009,05,30,16,51,21.80
2009,05,30,16,52,21.90
2009,05,30,16,53,21.80
2009,05,30,16,54,21.80
2009,05,30,16,55,21.90
2009,05,30,16,56,21.90
2009,05,30,16,57,21.90
2009,05,30,16,58,21.90
2009,05,30,16,59,21.80
2009,05,30,17,00,21.80
2009,05,30,17,01,21.90
2009,05,30,17,02,21.90
2009,05,30,17,03,22.00
2009,05,30,17,04,22.00
2009,05,30,17,05,22.10
2009,05,30,17,06,22.20
2009,05,30,17,07,22.10
2009,05,30,17,08,22.10
2009,05,30,17,09,22.00
2009,05,30,17,10,21.90
2009,05,30,17,11,21.80
2009,05,30,17,12,21.70
2009,05,30,17,13,21.70
2009,05,30,17,14,21.70
2009,05,30,17,15,21.70
2009,05,30,17,16,21.70
2009,05,30,17,17,21.60
2009,05,30,17,18,21.60
2009,05,30,17,19,21.60
2009,05,30,17,20,21.60